FW7874 Weather Reports


time (UTC)temp
C
wind
direction
speed
KPH
gust
KPH
rain 1hr
cm
rain 24hr
cm
rain mn
cm
humidity
%
barometer
mb
20260504100404 5 272 0.0 0.0 0.00 0.00 0.00 78 1009.9
20260504081404 7 272 0.0 4.8 0.00 0.00 0.00 73 1010.0
20260504070404 7 272 0.0 0.0 0.00 0.00 0.00 71 1010.1
20260504050404 7 272 0.0 0.0 0.00 0.00 0.00 69 1010.5
20260504045404 7 272 0.0 0.0 0.00 0.00 0.00 68 1010.7
20260504044404 7 272 0.0 0.0 0.00 0.00 0.00 68 1010.8
20260504043403 7 272 0.0 0.0 0.00 0.00 0.00 64 1011.1
20260504042404 7 272 0.0 0.0 0.00 0.00 0.00 64 1011.2
20260504041404 7 272 0.0 1.6 0.00 0.00 0.00 64 1011.2
20260504040404 7 272 0.0 0.0 0.00 0.00 0.00 63 1011.2
20260504035404 7 272 0.0 0.0 0.00 0.00 0.00 63 1011.1
20260504034404 7 272 0.0 1.6 0.00 0.00 0.00 63 1011.0
20260504033404 7 272 0.0 0.0 0.00 0.00 0.00 63 1010.9
20260504032404 7 272 0.0 1.6 0.00 0.00 0.00 63 1010.8
20260504031404 7 272 0.0 0.0 0.00 0.00 0.00 62 1010.7
20260504030404 7 272 0.0 0.0 0.00 0.00 0.00 61 1010.7
20260504023404 7 272 0.0 0.0 0.00 0.00 0.00 57 1010.7
20260504022404 7 272 0.0 0.0 0.00 0.00 0.00 55 1010.7
20260504020404 8 272 0.0 0.0 0.00 0.00 0.00 54 1010.8
20260504015404 9 272 0.0 0.0 0.00 0.00 0.00 52 1010.6
20260504012404 10 272 0.0 1.6 0.00 0.00 0.00 47 1010.6
20260504010404 10 272 1.6 9.7 0.00 0.00 0.00 47 1010.4
20260504005404 10 272 3.2 12.9 0.00 0.00 0.00 46 1010.3
20260504004404 10 274 3.2 20.9 0.00 0.00 0.00 45 1010.3
20260504001404 11 268 1.6 19.3 0.00 0.00 0.00 43 1010.0
20260504000404 11 265 4.8 20.9 0.00 0.00 0.00 42 1010.0
20260503235404 11 221 4.8 24.1 0.00 0.00 0.00 41 1009.8
20260503234404 11 273 8.0 25.7 0.00 0.00 0.00 41 1009.8
20260503233405 11 268 9.7 37.0 0.00 0.00 0.00 38 1009.5
20260503232404 12 267 9.7 27.4 0.00 0.00 0.00 38 1009.4
20260503231404 12 258 4.8 27.4 0.00 0.00 0.00 36 1009.3
20260503230405 12 249 11.3 27.4 0.00 0.00 0.00 35 1009.1
20260503225404 12 259 8.0 22.5 0.00 0.00 0.00 34 1009.0
20260503224405 12 277 9.7 32.2 0.00 0.00 0.00 34 1008.9
20260503223404 12 266 4.8 32.2 0.00 0.00 0.00 34 1008.9
20260503222404 13 272 4.8 32.2 0.00 0.00 0.00 34 1008.8
20260503221404 13 292 12.9 27.4 0.00 0.00 0.00 31 1008.8
20260503220404 13 261 6.4 25.7 0.00 0.00 0.00 31 1008.8
20260503215404 13 264 6.4 25.7 0.00 0.00 0.00 32 1008.8
20260503214404 13 252 8.0 32.2 0.00 0.00 0.00 32 1008.9
20260503213404 13 244 9.7 25.7 0.00 0.00 0.00 31 1008.9
20260503212404 13 272 11.3 22.5 0.00 0.00 0.00 30 1008.9
20260503211404 13 275 11.3 32.2 0.00 0.00 0.00 32 1008.9
20260503210404 12 294 8.0 32.2 0.00 0.00 0.00 33 1008.9
20260503205405 12 275 11.3 32.2 0.00 0.00 0.00 33 1008.9
20260503204404 12 234 11.3 35.4 0.00 0.00 0.00 34 1009.0
20260503203404 12 338 11.3 32.2 0.00 0.00 0.00 35 1009.2
20260503201404 13 249 4.8 32.2 0.00 0.00 0.00 37 1009.2
20260503195404 13 345 6.4 32.2 0.00 0.00 0.00 39 1009.4
20260503194404 12 286 4.8 19.3 0.00 0.00 0.00 38 1009.6
20260503193404 12 289 3.2 8.0 0.00 0.00 0.00 44 1009.6
20260503191404 11 261 8.0 24.1 0.00 0.00 0.00 42 1010.0
20260503190404 11 340 3.2 24.1 0.00 0.00 0.00 40 1010.2
20260503185404 11 273 8.0 24.1 0.00 0.00 0.00 41 1010.3
20260503184404 11 311 9.7 32.2 0.00 0.00 0.00 42 1010.3
20260503183405 11 261 9.7 37.0 0.00 0.00 0.00 41 1010.4
20260503182404 11 291 8.0 19.3 0.00 0.00 0.00 43 1010.4
20260503181404 11 263 3.2 24.1 0.00 0.00 0.00 46 1010.4
20260503180404 11 262 9.7 27.4 0.00 0.00 0.00 43 1010.5
20260503174405 10 282 4.8 19.3 0.00 0.00 0.00 49 1010.5
20260503173404 9 270 6.4 25.7 0.00 0.00 0.00 50 1010.7
20260503172404 9 266 9.7 25.7 0.00 0.00 0.00 48 1010.9
20260503171404 9 269 4.8 19.3 0.00 0.00 0.00 48 1010.8
20260503170404 9 271 6.4 32.2 0.00 0.00 0.00 49 1010.8
20260503150404 8 242 4.8 25.7 0.00 0.00 0.00 56 1011.1
20260503131404 7 271 6.4 19.3 0.00 0.00 0.00 63 1011.6
20260503130404 7 355 3.2 11.3 0.00 0.00 0.00 67 1011.7
20260503110404 5 266 4.8 14.5 0.00 0.00 0.00 73 1011.0